Back to catalog

CZ-3C DEB

AliveHEO
NORAD 39347·DEBRIS·🇨🇳 China

Launched Oct 31, 2010 from Xichang Satellite Launch Center

Loading…

Next Passes (next 24 hours)

TLE

FreshSource: Space-Track

Epoch: Sep 14, 2026, 05:03 UTC

1 39347U 10057M   26257.21055221  .00003776  00000-0  38324-2 0  9994
2 39347  20.2072 216.8465 6592003 172.4252 207.4976  3.12284225124967

Track CZ-3C DEB in real time with AllMySat

Download on the App Store